• en France
  • Liste des pays
  • À 7 jours
  • Température de l'eau
  • Carte satellitaire
  • Carte météo
  • Widgets météo
  • user-avatar
    Se connecter

    Météo par heure à Ballycastle

    Ce jour, 21 Octobre, Dimanche

    Heure Température Précipitation Vent Pression Humidité
    00:00 +15°C° 0 mm 6 m/s 764 mmHg 95%
    01:00 +15°C° 0 mm 6 m/s 763 mmHg 94%
    02:00 +15°C° 0 mm 6 m/s 763 mmHg 93%
    03:00 +15°C° 0 mm 6 m/s 763 mmHg 92%
    04:00 +15°C° 0.1 mm 6 m/s 763 mmHg 93%
    05:00 +15°C° 0.1 mm 7 m/s 763 mmHg 93%
    06:00 +14°C° 0.1 mm 7 m/s 763 mmHg 94%
    07:00 +12°C° 0.5 mm 7 m/s 763 mmHg 92%
    08:00 +11°C° 0.5 mm 7 m/s 764 mmHg 91%
    09:00 +9°C° 0.5 mm 7 m/s 764 mmHg 90%
    10:00 +9°C° 0.2 mm 7 m/s 765 mmHg 88%
    11:00 +10°C° 0.2 mm 7 m/s 766 mmHg 87%
    12:00 +10°C° 0.2 mm 7 m/s 767 mmHg 86%
    13:00 +10°C° 0 mm 8 m/s 767 mmHg 82%
    14:00 +10°C° 0 mm 8 m/s 768 mmHg 78%
    15:00 +10°C° 0 mm 9 m/s 768 mmHg 74%
    16:00 +8°C° 0 mm 9 m/s 769 mmHg 74%
    17:00 +7°C° 0 mm 8 m/s 769 mmHg 73%
    18:00 +7°C° 0 mm 8 m/s 770 mmHg 73%
    19:00 +7°C° 0 mm 8 m/s 771 mmHg 73%
    20:00 +6°C° 0 mm 8 m/s 771 mmHg 74%
    21:00 +6°C° 0 mm 8 m/s 772 mmHg 74%
    22:00 +6°C° 0 mm 8 m/s 772 mmHg 74%
    23:00 +6°C° 0 mm 8 m/s 773 mmHg 73%

    Demain, 22 Octobre, Lundi

    Heure Température Précipitation Vent Pression Humidité
    00:00 +6°C° 0 mm 8 m/s 773 mmHg 73%
    01:00 +5°C° 0 mm 8 m/s 773 mmHg 73%
    02:00 +5°C° 0 mm 7 m/s 774 mmHg 73%
    03:00 +5°C° 0 mm 7 m/s 774 mmHg 73%
    04:00 +4°C° 0 mm 6 m/s 775 mmHg 76%
    05:00 +4°C° 0 mm 6 m/s 775 mmHg 78%
    06:00 +4°C° 0 mm 6 m/s 775 mmHg 80%
    07:00 +5°C° 0 mm 6 m/s 775 mmHg 80%
    08:00 +5°C° 0 mm 6 m/s 776 mmHg 79%
    09:00 +7°C° 0 mm 6 m/s 776 mmHg 79%
    10:00 +8°C° 0 mm 7 m/s 776 mmHg 76%
    11:00 +9°C° 0 mm 7 m/s 776 mmHg 74%
    12:00 +10°C° 0 mm 7 m/s 776 mmHg 71%
    13:00 +10°C° 0 mm 8 m/s 775 mmHg 72%
    14:00 +10°C° 0 mm 8 m/s 775 mmHg 73%
    15:00 +11°C° 0 mm 9 m/s 775 mmHg 73%
    16:00 +10°C° 0 mm 9 m/s 775 mmHg 77%
    17:00 +8°C° 0 mm 9 m/s 774 mmHg 80%
    18:00 +8°C° 0 mm 9 m/s 774 mmHg 83%
    19:00 +8°C° 0 mm 9 m/s 774 mmHg 85%
    20:00 +7°C° 0 mm 9 m/s 774 mmHg 86%
    21:00 +7°C° 0 mm 9 m/s 774 mmHg 88%
    22:00 +7°C° 0 mm 9 m/s 774 mmHg 88%
    23:00 +7°C° 0 mm 9 m/s 773 mmHg 89%

    Après-demain, 23 Octobre, Mardi

    Heure Température Précipitation Vent Pression Humidité
    00:00 +7°C° 0 mm 9 m/s 773 mmHg 89%
    01:00 +7°C° 0 mm 9 m/s 773 mmHg 89%
    02:00 +8°C° 0 mm 10 m/s 772 mmHg 89%
    03:00 +8°C° 0 mm 10 m/s 772 mmHg 89%
    04:00 +8°C° 0 mm 10 m/s 772 mmHg 87%
    05:00 +8°C° 0 mm 10 m/s 771 mmHg 85%
    06:00 +8°C° 0 mm 10 m/s 771 mmHg 84%
    07:00 +8°C° 0 mm 10 m/s 771 mmHg 82%
    08:00 +9°C° 0 mm 10 m/s 771 mmHg 80%
    09:00 +9°C° 0 mm 11 m/s 771 mmHg 79%
    10:00 +11°C° 0 mm 11 m/s 771 mmHg 77%
    11:00 +12°C° 0 mm 11 m/s 771 mmHg 76%
    12:00 +12°C° 0 mm 10 m/s 771 mmHg 75%
    13:00 +12°C° 0 mm 10 m/s 770 mmHg 76%
    14:00 +12°C° 0 mm 10 m/s 770 mmHg 78%
    15:00 +12°C° 0 mm 10 m/s 770 mmHg 79%
    16:00 +12°C° 0.1 mm 10 m/s 770 mmHg 82%
    17:00 +11°C° 0.1 mm 9 m/s 770 mmHg 85%
    18:00 +11°C° 0.1 mm 9 m/s 771 mmHg 88%
    19:00 +11°C° 0 mm 9 m/s 771 mmHg 88%
    20:00 +11°C° 0 mm 9 m/s 771 mmHg 89%
    21:00 +11°C° 0 mm 8 m/s 771 mmHg 90%
    22:00 +11°C° 0 mm 8 m/s 771 mmHg 91%
    23:00 +11°C° 0 mm 8 m/s 771 mmHg 91%

    24 Octobre, Mercredi

    Heure Température Précipitation Vent Pression Humidité
    00:00 +11°C° 0 mm 8 m/s 771 mmHg 92%
    01:00 +11°C° 0 mm 7 m/s 771 mmHg 92%
    02:00 +11°C° 0 mm 7 m/s 771 mmHg 93%
    03:00 +11°C° 0 mm 6 m/s 771 mmHg 93%
    04:00 +11°C° 0 mm 6 m/s 771 mmHg 92%
    05:00 +10°C° 0 mm 6 m/s 771 mmHg 92%
    06:00 +10°C° 0 mm 6 m/s 771 mmHg 91%
    07:00 +10°C° 0 mm 6 m/s 771 mmHg 90%
    08:00 +10°C° 0 mm 6 m/s 771 mmHg 89%
    09:00 +10°C° 0 mm 6 m/s 771 mmHg 89%
    10:00 +10°C° 0 mm 6 m/s 771 mmHg 86%
    11:00 +10°C° 0 mm 6 m/s 771 mmHg 84%
    12:00 +11°C° 0 mm 6 m/s 771 mmHg 82%
    13:00 +11°C° 0 mm 6 m/s 771 mmHg 82%
    14:00 +10°C° 0 mm 6 m/s 770 mmHg 82%
    15:00 +10°C° 0 mm 6 m/s 770 mmHg 81%
    16:00 +10°C° 0 mm 6 m/s 770 mmHg 82%
    17:00 +9°C° 0 mm 6 m/s 769 mmHg 83%
    18:00 +9°C° 0 mm 6 m/s 769 mmHg 84%
    19:00 +9°C° 0 mm 6 m/s 769 mmHg 84%
    20:00 +8°C° 0 mm 6 m/s 769 mmHg 84%
    21:00 +8°C° 0 mm 6 m/s 769 mmHg 84%
    22:00 +8°C° 0 mm 6 m/s 769 mmHg 85%
    23:00 +8°C° 0 mm 6 m/s 768 mmHg 86%

    25 Octobre, Jeudi

    Heure Température Précipitation Vent Pression Humidité
    00:00 +8°C° 0 mm 6 m/s 768 mmHg 87%
    01:00 +8°C° 0 mm 6 m/s 768 mmHg 87%
    02:00 +8°C° 0 mm 6 m/s 767 mmHg 87%
    03:00 +8°C° 0 mm 6 m/s 767 mmHg 87%
    04:00 +8°C° 0 mm 6 m/s 767 mmHg 86%
    05:00 +8°C° 0 mm 5 m/s 766 mmHg 86%
    06:00 +8°C° 0 mm 5 m/s 766 mmHg 85%
    07:00 +8°C° 0 mm 6 m/s 766 mmHg 85%
    08:00 +9°C° 0 mm 6 m/s 766 mmHg 84%
    09:00 +9°C° 0 mm 6 m/s 766 mmHg 84%
    10:00 +9°C° 0.1 mm 6 m/s 765 mmHg 83%
    11:00 +10°C° 0.1 mm 6 m/s 765 mmHg 81%
    12:00 +10°C° 0.1 mm 6 m/s 765 mmHg 80%
    13:00 +10°C° 0.1 mm 6 m/s 764 mmHg 81%
    14:00 +10°C° 0.1 mm 7 m/s 763 mmHg 81%
    15:00 +10°C° 0.1 mm 7 m/s 763 mmHg 82%
    16:00 +9°C° 0.1 mm 7 m/s 762 mmHg 83%
    17:00 +9°C° 0.1 mm 7 m/s 762 mmHg 85%
    18:00 +9°C° 0.1 mm 7 m/s 761 mmHg 86%
    19:00 +9°C° 0.2 mm 7 m/s 761 mmHg 86%
    20:00 +9°C° 0.2 mm 8 m/s 760 mmHg 86%
    21:00 +9°C° 0.2 mm 8 m/s 760 mmHg 86%
    22:00 +7°C° 0.5 mm 8 m/s 760 mmHg 85%
    23:00 +7°C° 0.5 mm 9 m/s 759 mmHg 84%

    26 Octobre, Vendredi

    Heure Température Précipitation Vent Pression Humidité
    00:00 +6°C° 0.5 mm 9 m/s 759 mmHg 82%
    01:00 +6°C° 0.1 mm 9 m/s 759 mmHg 81%
    02:00 +5°C° 0.1 mm 9 m/s 759 mmHg 80%
    03:00 +5°C° 0.1 mm 8 m/s 759 mmHg 79%
    04:00 +5°C° 0.1 mm 8 m/s 759 mmHg 80%
    05:00 +5°C° 0.1 mm 8 m/s 759 mmHg 80%
    06:00 +4°C° 0.1 mm 8 m/s 759 mmHg 81%
    07:00 +5°C° 0.2 mm 8 m/s 759 mmHg 80%
    08:00 +5°C° 0.2 mm 8 m/s 759 mmHg 78%
    09:00 +6°C° 0.2 mm 8 m/s 760 mmHg 77%
    10:00 +6°C° 0.2 mm 8 m/s 760 mmHg 75%
    11:00 +7°C° 0.2 mm 9 m/s 761 mmHg 73%
    12:00 +7°C° 0.2 mm 9 m/s 761 mmHg 70%
    13:00 +7°C° 0.1 mm 10 m/s 761 mmHg 69%
    14:00 +7°C° 0.1 mm 10 m/s 762 mmHg 68%
    15:00 +6°C° 0.1 mm 11 m/s 762 mmHg 67%
    16:00 +6°C° 0.1 mm 11 m/s 763 mmHg 68%
    17:00 +4°C° 0.1 mm 11 m/s 763 mmHg 68%
    18:00 +3°C° 0.1 mm 11 m/s 764 mmHg 69%
    19:00 +3°C° 0.1 mm 11 m/s 764 mmHg 67%
    20:00 +3°C° 0.1 mm 10 m/s 764 mmHg 66%
    21:00 +3°C° 0.1 mm 9 m/s 765 mmHg 64%
    22:00 +2°C° 0.9 mm 9 m/s 764 mmHg 72%
    23:00 +2°C° 0.9 mm 10 m/s 764 mmHg 79%
    Voir plus